San Antonio, TX

5:17 AM CST on February 26, 2017 (GMT -0600)
Stinson Municipal

Weather History for KSSF - February, 2014

Change the Weather History Date:

Friday, February 7, 2014

  Actual Average Record
Temperature  
Mean Temperature 34 °F -  
Max Temperature 37 °F 62 °F 87 °F (2017)
Min Temperature 30 °F 44 °F 30 °F (2014)
Degree Days  
Heating Degree Days 32    
Moisture  
Dew Point 28 °F    
Average Humidity 79    
Maximum Humidity 93    
Minimum Humidity 55    
Precipitation  
Precipitation 0.00 in - - ()
Sea Level Pressure  
Sea Level Pressure 30.28 in    
Wind  
Wind Speed 6 mph (NE)    
Max Wind Speed 9 mph    
Max Gust Speed -    
Visibility 5 miles    
Events      
Averages and records for this station are not official NWS values.
T = Trace of Precipitation, MM = Missing Value Source: NWS Daily Summary

Daily Weather History Graph

Daily Weather History Graph

Search for Another Location

Airport or City:

Trip Planner

Search our weather history database for the weather conditions in past years. The results will help you decide how hot, cold, wet, or windy it might be!

Date:

Astronomy

Feb. 07, 2014 Rise Set
Actual Time 7:19 AM CST 6:17 PM CST
Civil Twilight 6:54 AM CST 6:41 PM CST
Nautical Twilight 6:26 AM CST 7:10 PM CST
Astronomical Twilight 5:58 AM CST 7:37 PM CST
Moon 12:34 PM CST (2/7) 1:32 AM CST (2/7)
Length of Visible Light 11h 47m
Length of Day
10h 58m
First Quarter, 59% of the Moon is Illuminated
Feb 7
First Quarter
Feb 14
Full
Feb 22
Last Quarter
Mar 1
New
Mar 8
First Quarter

Hourly Weather History & Observations

Time (CST) Temp. Windchill Dew Point Humidity Pressure Visibility Wind Dir Wind Speed Gust Speed Precip Events Conditions
12:53 AM 32.0 °F 24.8 °F 18.0 °F 56% 30.35 in 10.0 mi ENE 8.1 mph - N/A   Overcast
1:03 AM 32.0 °F 24.8 °F 17.6 °F 55% 30.32 in 10.0 mi ENE 8.1 mph - N/A   Overcast
1:53 AM 32.0 °F 24.8 °F 18.0 °F 56% 30.35 in 10.0 mi NE 8.1 mph - N/A   Overcast
2:42 AM 32.0 °F 25.6 °F 17.6 °F 55% 30.31 in 10.0 mi NE 6.9 mph - N/A   Overcast
2:53 AM 32.0 °F 24.8 °F 18.0 °F 56% 30.35 in 10.0 mi NNE 8.1 mph - N/A   Overcast
3:53 AM 32.0 °F 27.5 °F 19.0 °F 59% 30.33 in 10.0 mi NE 4.6 mph - N/A   Overcast
4:53 AM 32.0 °F 24.8 °F 19.9 °F 61% 30.29 in 10.0 mi ENE 8.1 mph - N/A   Overcast
5:53 AM 32.0 °F 25.6 °F 19.9 °F 61% 30.31 in 10.0 mi NNE 6.9 mph - N/A   Overcast
6:53 AM 32.0 °F 27.5 °F 19.9 °F 61% 30.31 in 10.0 mi ENE 4.6 mph - N/A   Overcast
7:53 AM 32.0 °F 24.8 °F 19.9 °F 61% 30.31 in 10.0 mi ENE 8.1 mph - N/A   Overcast
8:30 AM 30.2 °F 21.9 °F 21.2 °F 69% 30.30 in 7.0 mi ENE 9.2 mph - N/A   Overcast
8:53 AM 30.9 °F 23.5 °F 23.0 °F 72% 30.34 in 6.0 mi NNE 8.1 mph - N/A   Haze
9:25 AM 30.2 °F 23.4 °F 26.6 °F 86% 30.33 in 2.0 mi NE 6.9 mph - N/A   Overcast
9:34 AM 30.2 °F 22.6 °F 26.6 °F 86% 30.33 in 1.2 mi NNE 8.1 mph - N/A   Overcast
9:45 AM 30.2 °F 23.4 °F 26.6 °F 86% 30.33 in 1.2 mi NE 6.9 mph - N/A   Overcast
9:53 AM 30.0 °F 22.4 °F 27.0 °F 88% 30.36 in 1.2 mi NNE 8.1 mph - N/A   Overcast
10:06 AM 30.2 °F 22.6 °F 26.6 °F 86% 30.32 in 1.5 mi NNE 8.1 mph - N/A   Overcast
10:53 AM 30.9 °F 22.8 °F 28.0 °F 89% 30.35 in 1.2 mi NNE 9.2 mph - N/A   Overcast
11:53 AM 32.0 °F 24.2 °F 28.9 °F 88% 30.34 in 1.2 mi NE 9.2 mph - N/A   Overcast
12:53 PM 33.1 °F 26.9 °F 30.0 °F 89% 30.30 in 1.8 mi NNE 6.9 mph - N/A   Overcast
1:38 PM 33.8 °F 28.6 °F 30.2 °F 87% 30.24 in 2.0 mi NE 5.8 mph - N/A   Overcast
1:53 PM 34.0 °F 28.8 °F 30.9 °F 89% 30.27 in 2.0 mi NE 5.8 mph - N/A   Overcast
2:03 PM 33.8 °F 28.6 °F 32.0 °F 93% 30.23 in 1.8 mi NE 5.8 mph - N/A   Overcast
2:28 PM 35.6 °F 31.7 °F 32.0 °F 87% 30.22 in 2.0 mi NNE 4.6 mph - N/A   Overcast
2:53 PM 35.1 °F 31.0 °F 33.1 °F 92% 30.24 in 2.0 mi NE 4.6 mph - N/A   Overcast
3:53 PM 36.0 °F 32.1 °F 33.1 °F 89% 30.25 in 2.5 mi North 4.6 mph - N/A   Overcast
4:01 PM 37.4 °F 33.8 °F 33.8 °F 87% 30.22 in 3.0 mi NNE 4.6 mph - N/A   Overcast
4:53 PM 37.0 °F - 34.0 °F 89% 30.25 in 4.0 mi Calm Calm - N/A   Overcast
5:53 PM 37.9 °F - 34.0 °F 86% 30.25 in 4.0 mi Calm Calm - N/A   Overcast
6:53 PM 37.0 °F 32.4 °F 34.0 °F 89% 30.24 in 5.0 mi East 5.8 mph - N/A   Overcast
7:53 PM 37.0 °F 34.5 °F 34.0 °F 89% 30.26 in 3.0 mi ENE 3.5 mph - N/A   Overcast
8:18 PM 37.4 °F 34.9 °F 33.8 °F 87% 30.23 in 3.0 mi NE 3.5 mph - N/A   Overcast
8:27 PM 37.4 °F - 33.8 °F 87% 30.23 in 4.0 mi Calm Calm - N/A   Overcast
8:53 PM 37.0 °F 33.3 °F 34.0 °F 89% 30.25 in 3.0 mi East 4.6 mph - N/A   Overcast
9:08 PM 37.4 °F 34.9 °F 33.8 °F 87% 30.23 in 3.0 mi East 3.5 mph - N/A   Overcast
9:36 PM 37.4 °F 34.9 °F 33.8 °F 87% 30.23 in 3.0 mi East 3.5 mph - N/A   Overcast
9:44 PM 37.4 °F - 33.8 °F 87% 30.23 in 3.0 mi Calm Calm - N/A   Overcast
9:53 PM 37.0 °F - 34.0 °F 89% 30.27 in 3.0 mi Calm Calm - N/A   Overcast
10:53 PM 37.9 °F - 33.1 °F 83% 30.27 in 4.0 mi Calm Calm - N/A   Haze
11:53 PM 37.9 °F - 34.0 °F 86% 30.26 in 3.0 mi Calm Calm - N/A   Overcast